This is the latest recevied weather packets stored in our database for station/object KY0TEQ-13. If no packets are shown the sender has not sent any weather packets the latest 10 day(s).
| Time | Temp. | Humidity | Pressure | Rain* | Wind** | Luminosity | Snow |
|---|---|---|---|---|---|---|---|
| 1778018565 | 15.56° C | 23% | 1293.6 hPa | 0 mm | - | 620 W/m² | - |
| 1778018263 | 15.56° C | 24% | 1293.8 hPa | 0 mm | - | 185 W/m² | - |
| 1778017961 | 16.11° C | 24% | 1293.8 hPa | 0 mm | - | 610 W/m² | - |
| 1778017659 | 15.56° C | 23% | 1293.7 hPa | 0 mm | - | 571 W/m² | - |
| 1778017356 | 15.56° C | 23% | 1294 hPa | 0 mm | - | 417 W/m² | - |
| 1778017053 | 15.56° C | 24% | 1293.9 hPa | 0 mm | - | 673 W/m² | - |
| 1778016750 | 15.56° C | 22% | 1294 hPa | 0 mm | - | 690 W/m² | - |
| 1778016446 | 15° C | 24% | 1294.4 hPa | 0 mm | - | 634 W/m² | - |
| 1778016144 | 15° C | 22% | 1294.2 hPa | 0 mm | - | 524 W/m² | - |
| 1778015840 | 15.56° C | 23% | 1294.5 hPa | 0 mm | - | 525 W/m² | - |
| 1778015538 | 15.56° C | 23% | 1294.5 hPa | 0 mm | - | 711 W/m² | - |
| 1778015234 | 15.56° C | 23% | 1294.5 hPa | 0 mm | - | 765 W/m² | - |
| 1778014931 | 15° C | 22% | 1294.5 hPa | 0 mm | - | 758 W/m² | - |
| 1778014628 | 15.56° C | 22% | 1294.5 hPa | 0 mm | - | 771 W/m² | - |
| 1778014327 | 15.56° C | 22% | 1294.8 hPa | 0 mm | - | 789 W/m² | - |
| 1778014022 | 15.56° C | 23% | 1294.9 hPa | 0 mm | - | 265 W/m² | - |
| 1778013721 | 15.56° C | 23% | 1294.9 hPa | 0 mm | - | 791 W/m² | - |
| 1778013418 | 15.56° C | 23% | 1295 hPa | 0 mm | - | 780 W/m² | - |
| 1778013114 | 14.44° C | 24% | 1295.1 hPa | 0 mm | - | 327 W/m² | - |
| 1778012810 | 14.44° C | 23% | 1295.1 hPa | 0 mm | - | 286 W/m² | - |
| 1778012506 | 15° C | 23% | 1295.1 hPa | 0 mm | - | 905 W/m² | - |
| 1778012203 | 14.44° C | 22% | 1295.1 hPa | 0 mm | - | 992 W/m² | - |
| 1778011901 | 15° C | 22% | 1295.3 hPa | 0 mm | - | 382 W/m² | - |
| 1778011599 | 14.44° C | 22% | 1295.5 hPa | 0 mm | - | 415 W/m² | - |
| 1778011295 | 15° C | 22% | 1295.3 hPa | 0 mm | - | 394 W/m² | - |
* Rain latest hour (hover to see other rain measurements)
** Current wind speed in m/s (hover to see current wind gust speed)